www.pogodaiklimat.ru

Погода и климат >> Архив погоды >> Сербия >> Vrsac


ПОГОДА в Vrsac

  • Прогноз погоды в Vrsac
  • Монитор погоды в Vrsac
  • Климат города

АРХИВ ПОГОДЫ в Vrsac

Время (UTC), дата Ветер
(напр.,м/с)
 
Видим.   Явления Облачность Т
(С)
Тd
(С)
f
(%)
Тe
(С)
Тes
(С)
Комфортность P
(гПа)
Po
(гПа)
Тmin
(С)
Tmax
(С)
R
(мм)
R24
(мм)
S
(см)
06 13.06 СВ 5 20 км {гроза, ливн. осадки} 9/4 1000 м
[Cu med, cong As op]
+20.5 +15.8 74 +23 +24 комфорт 1004.8 994.9 +17.6 6
07 13.06 С 2 20 км 9/4 1000 м
[Cu med, cong As op]
+21.0 +16.9 77 +25 +27 комфорт 1004.7 994.9
08 13.06 штиль 0 20 км 5/3 1000 м
[Cu med, cong Ci fib]
+24.4 +18.3 69 +29 +41 душно 1004.7 995.0
09 13.06 Ю 1 20 км 5/3 1000 м
[Cu med, cong Ci fib]
+26.0 +19.5 67 +31 +45 очень
душно
1004.4 994.7
10 13.06 З 4 20 км 6/6 900 м
[Cu med, cong Ci fib]
+26.2 +19.7 67 +32 +37 очень
душно
1004.2 994.5
11 13.06 СЗ 5 20 км 6/6 900 м
[Cu med, cong Ci fib]
+26.7 +19.4 64 +32 +36 очень
душно
1003.9 994.3
12 13.06 С 7 20 км 6/6 800 м
[Cu med, cong]
+25.6 +18.7 66 +31 +32 очень
душно
1003.5 993.8
13 13.06 С 4 20 км 8/8 800 м
[Cu med, cong]
+25.0 +17.0 61 +29 +31 душно 1003.5 993.8
14 13.06 СВ 9 5000 м гроза, ливневой дождь 10/10 800 м
[Cb calv]
+20.1 +18.9 93 +23 +23 комфорт 1004.0 994.1
15 13.06 С 2 4000 м гроза, ливневой дождь 10/10 800 м
[Cb calv]
+17.8 +17.2 96 +18 +18 1007.1 997.1
16 13.06 СВ 4 6000 м гроза, ливневой дождь 10/10 800 м
[Cb calv]
+17.7 +17.4 98 +17 +17 1007.5 997.5
17 13.06 СВ 13
{21}
10 км в посл. час гроза 10/10 800 м
[Cu Sc]
+18.3 +17.2 93 +17 +17 1002.4 992.4
18 13.06 СВ 8
{22}
15 км в посл. час гроза {ливн. осадки} 9/4 900 м
[Cu med, cong Ac As Ci fib]
+19.6 +14.7 73 +21 +21 комфорт 1003.8 993.8 +27.6 27
19 13.06 В 5 15 км 9/4 1200 м
[Sc Ac trans Cs]
+19.9 +14.0 69 +22 +22 комфорт 1004.3 994.4
20 13.06 ЮЗ 3 15 км 9/0
[Ac trans Cs]
+18.1 +14.6 80 +18 +18 1004.3 994.3
21 13.06 Ю 1
{14}
15 км 9/0
[Ac trans Cs]
+16.8 +15.5 92 +18 +18 1004.9 994.9
22 13.06 В 1 15 км 4/0
[Ac trans Ci fib]
+16.3 +15.0 92 +17 +17 1005.4 995.3
23 13.06 В 2 15 км 4/0
[Cs]
+15.9 +15.1 95 +16 +16 1005.8 995.7
00 14.06 В 1 15 км 4/0
[Cs]
+15.2 +14.4 95 +16 +16 1005.7 995.6
01 14.06 З 1 10 км 3/0
[Ac trans Cs]
+15.3 +14.7 96 +16 +16 1005.8 995.7
02 14.06 штиль 0 8000 м дымка 6/0
[Ac und Cs]
+14.7 +14.2 97 +14 +14 1005.4 995.3
03 14.06 В 1 5000 м дымка 6/0
[Ac trans Cs]
+14.0 +13.5 97 +14 +14 1005.3 995.2
04 14.06 штиль 0 10 км 5/0
[Ac trans Ci fib]
+15.8 +15.2 96 +16 +16 1005.9 995.8
06 14.06 Ю 3 10 км 6/5 180 м
[St Ac trans]
+18.7 +16.5 87 +20 +22 1006.5 996.5 +13.7
09 14.06 ЮЗ 1 15 км 9/8 700 м
[Cu med, cong As op]
+20.4 +16.9 80 +25 +27 комфорт 1007.3 997.6
12 14.06 З 2 20 км 9/8 800 м
[Cu med, cong As op]
+23.3 +17.6 70 +29 +31 душно 1006.5 996.9
15 14.06 ЮВ 2 20 км 8/5 800 м
[Cu med, cong Ci fib]
+24.6 +16.3 60 +28 +31 душно 1005.7 996.1
18 14.06 С 2 20 км 8/8 900 м
[Cu Sc]
+20.5 +16.3 77 +24 +24 комфорт 1007.3 997.4 +25.7
21 14.06 С 1 10 км 4/4 600 м
[Sc]
+18.9 +17.7 93 +21 +21 комфорт 1007.6 997.7
00 15.06 С 2 10 км 1/1 480 м
[St]
+17.1 +16.3 95 +17 +17 1007.6 997.6
03 15.06 СЗ 3 10 км 6/3 480 м
[Sc]
+16.2 +15.1 93 +16 +16 1007.8 997.8
06 15.06 С 3 15 км 10/10 240 м
[St]
+16.7 +14.8 89 +16 +16 1008.3 998.3 +16.0
07 15.06 С 2 10 км 10/10 240 м
[St]
+16.9 +15.2 90 +17 +17 1008.7 998.6
08 15.06 С 2 10 км в посл. час дождь 10/8 240 м
[St As op]
+17.9 +15.8 88 +18 +19 1008.6 998.6
09 15.06 З 1 3000 м ливневой дождь 10/10 300 м
[Cu med, cong]
+16.6 +16.4 99 +17 +17 1009.2 999.1
11 15.06 С 1 20 км в посл. час дождь 9/9 480 м
[Cu hum]
+19.5 +17.7 89 +23 +25 комфорт 1008.5 998.5
10 15.06 В 1 6000 м дождь 10/4 480 м
[Frnb As op]
+17.0 +16.7 98 +18 +21 1009.1 999.1
12 15.06 штиль 0 20 км {ливн. осадки, дождь} 9/6 700 м
[Cu hum Ac trans]
+20.2 +16.7 80 +23 +28 комфорт 1008.5 998.6 16
13 15.06 ЮЗ 1 20 км 9/5 800 м
[Cu hum Ac trans]
+21.2 +17.4 79 +25 +29 комфорт 1008.5 998.6
14 15.06 штиль 0 20 км 8/4 900 м
[Cu hum Ac trans Cs]
+22.3 +16.9 71 +27 +32 душно 1008.0 998.1
15 15.06 ЮЗ 1 20 км 8/4 900 м
[Cu hum Ac trans Cs]
+23.3 +16.9 67 +28 +31 душно 1007.8 997.9
17 15.06 ЮЗ 1 20 км 6/3 900 м
[Cu hum Ac trans Ci fib]
+20.9 +17.7 82 +26 +27 душно 1008.2 998.2
16 15.06 Ю 1 20 км 6/3 900 м
[Cu hum Ac trans Cs]
+22.5 +17.8 75 +28 +30 душно 1007.8 997.9
18 15.06 ЮЗ 1 20 км 6/1 600 м
[St Ac trans Ci fib]
+19.7 +17.7 88 +23 +23 комфорт 1008.5 998.8 +23.7 16
19 15.06 штиль 0 8000 м дымка 5/1 1500 м
[Sc Ac trans Ci fib]
+18.5 +17.7 95 +19 +19 1009.2 999.4
20 15.06 Ю 1 10 км 5/1 1500 м
[Sc Ac trans]
+17.6 +17.0 96 +19 +19 1009.1 999.3
21 15.06 ЮЗ 1 7000 м дымка 5/0
[Ac trans]
+18.1 +17.3 95 +19 +19 1009.0 999.2
23 15.06 штиль 0 4000 м дымка 5/0
[Ac trans]
+16.6 +16.1 97 +16 +16 1009.0 999.1
22 15.06 З 2 6000 м дымка 5/0
[Ac trans]
+17.5 +16.9 96 +18 +18 1009.0 999.2
00 16.06 Ю 1 5000 м дымка 5/0
[Ac trans]
+17.2 +16.6 96 +18 +18 1008.8 999.0
01 16.06 С 1 3000 м дымка 5/0
[Ac trans]
+16.9 +16.4 97 +18 +18 1009.1 999.3
02 16.06 штиль 0 200 м туман 5/0
[Ac trans]
+16.4 +16.2 99 +16 +16 1009.3 999.4
03 16.06 ЮЗ 1 2000 м в посл. час туман 4/0
[Ac trans]
+16.4 +16.2 99 +17 +17 1009.4 999.3
06 16.06 Ю 1 7000 м дымка {туман} 9/3 180 м
[St Ac und]
+18.8 +17.4 92 +21 +23 комфорт 1009.9 999.9 +15.9
09 16.06 З 2 10 км 9/4 480 м
[Cu hum Ac und Cs]
+21.5 +17.6 78 +26 +32 душно 1010.8 1000.8
12 16.06 ЮЗ 2 15 км в посл. час гроза 9/5 800 м
[Cu med, cong Ac cuf Ci ing]
+23.0 +19.0 78 +29 +34 очень
душно
1010.4 1000.5
14 16.06 штиль 0 15 км в посл. час гроза 9/5 900 м
[Cu med, cong Ac cuf Ci ing]
+24.4 +17.3 65 +28 +33 душно 1009.7 999.8
13 16.06 З 2 15 км гроза без осадков 9/5 700 м
[Cb cap Ac trans Ci fib]
+23.4 +18.2 73 +29 +34 душно 1009.7 999.8
15 16.06 В 1 15 км {гроза} 8/1 900 м
[Cu med, cong Ac cuf Ci ing]
+23.7 +18.7 74 +28 +33 душно 1009.5 999.7
16 16.06 С 1 20 км 8/1 1000 м
[Cu med, cong Ac trans Cs]
+25.7 +17.3 60 +30 +32 душно 1008.9 999.2
17 16.06 штиль 0 20 км 6/1 1200 м
[Cu med, cong Ac trans Ci sp]
+25.7 +17.6 61 +30 +31 душно 1008.9 999.2
18 16.06 СЗ 1 20 км {гроза} 5/1 1200 м
[Cu med, cong Ac trans Ci fib]
+23.8 +18.6 73 +28 +28 душно 1009.5 999.7 +26.0
20 16.06 ЮЗ 1 15 км 4/0
[Ac trans]
+20.3 +18.5 89 +25 +25 комфорт 1010.8 1000.8
19 16.06 штиль 0 15 км 4/0
[Ac trans]
+21.4 +18.3 83 +26 +26 душно 1010.2 1000.3
21 16.06 штиль 0 15 км 5/0
[Ac trans]
+19.2 +17.7 91 +21 +21 комфорт 1011.1 1001.1
22 16.06 З 1 10 км ясно +18.2 +16.9 92 +20 +20 1011.0 1001.0
23 16.06 штиль 0 10 км ясно +17.0 +16.2 95 +17 +17 1011.2 1001.2
00 17.06 З 2 10 км ясно +17.8 +17.4 98 +18 +18 1011.3 1001.3
02 17.06 Ю 1 10 км дымка 4/1 90 м
[St Ac trans]
+17.5 +17.3 99 +19 +19 1011.0 1001.0
01 17.06 ЮЗ 1 10 км 5/5 1500 м
[Sc]
+17.5 +17.1 98 +19 +19 1011.2 1001.2
03 17.06 ЮЗ 1 6000 м дымка 4/0
[Ac trans]
+17.2 +17.0 99 +18 +18 1011.3 1001.3
04 17.06 ЮЗ 1 6000 м дымка 5/0
[Ac trans]
+17.2 +16.9 98 +18 +19 1011.8 1001.7
05 17.06 Ю 1 8000 м дымка 9/5 180 м
[St Ac trans]
+18.3 +17.5 95 +20 +21 1011.8 1001.8
06 17.06 Ю 2 8000 м дымка 9/5 180 м
[St Ac trans]
+18.8 +17.6 93 +21 +22 комфорт 1012.1 1002.1 +16.5
08 17.06 ЮЗ 2 10 км 6/6 1500 м
[Sc]
+21.7 +17.8 78 +26 +32 душно 1012.4 1002.4
07 17.06 ЮЗ 2 8000 м дымка 9/5 180 м
[St Ac trans]
+19.7 +17.6 88 +23 +25 комфорт 1012.3 1002.4
09 17.06 ЮЗ 2 10 км 6/3 800 м
[Cu hum Ac trans]
+21.8 +18.2 80 +27 +35 душно 1012.2 1002.3
10 17.06 З 2 10 км 6/3 800 м
[Cu hum Ac trans]
+23.1 +18.1 73 +29 +39 очень
душно
1012.3 1002.4
11 17.06 З 2 10 км 5/5 900 м
[Cu hum]
+24.5 +18.8 71 +29 +39 душно 1011.7 1001.9
12 17.06 З 1 20 км 6/6 900 м
[Cu med, cong]
+25.6 +18.8 66 +31 +39 очень
душно
1011.1 1001.3
14 17.06 ЮЗ 2 20 км гроза без осадков 9/9 900 м
[Cb calv]
+21.9 +16.5 71 +26 +27 душно 1010.7 1000.7
13 17.06 С 1 20 км гроза без осадков 9/9 900 м
[Cb calv]
+26.3 +18.1 61 +31 +33 душно 1010.4 1000.7
15 17.06 С 1 10 км гроза, ливневой дождь 9/9 900 м
[Cb calv]
+20.1 +16.9 82 +24 +25 комфорт 1011.7 1001.8
16 17.06 С 3 10 км дождь 10/10 900 м
[Cu Sc]
+20.0 +17.8 87 +23 +23 комфорт 1011.5 1001.5
17 17.06 штиль 0 10 км в посл. час дождь 9/9 1000 м
[Cu Sc]
+19.7 +18.5 93 +22 +22 комфорт 1011.1 1001.1
18 17.06 С 1 30 км {гроза, дождь} 9/0
[Ac trans Cs]
+19.6 +18.4 93 +23 +23 комфорт 1010.8 1000.8 +26.9 3
20 17.06 штиль 0 15 км 8/0
[Ac trans Cs]
+18.6 +18.1 97 +20 +20 1012.1 1002.1
19 17.06 З 1 15 км 9/0
[Ac und Cs]
+18.8 +18.2 96 +21 +21 комфорт 1011.6 1001.6
21 17.06 штиль 0 10 км 8/0
[Ac trans Cs]
+18.0 +17.5 97 +18 +18 1012.2 1002.2
22 17.06 штиль 0 10 км 4/0
[Ci fib]
+17.4 +16.6 95 +17 +17 1012.1 1002.0
23 17.06 штиль 0 10 км 3/0
[Ci fib]
+16.4 +15.9 97 +16 +16 1012.1 1002.0
00 18.06 З 2 10 км 1/0
[Ci fib]
+17.1 +16.6 97 +17 +17 1012.1 1002.0
02 18.06 Ю 1 8000 м дымка 3/1 180 м
[St Ci fib]
+16.8 +16.5 98 +18 +18 1011.6 1001.5
01 18.06 ЮЗ 1 10 км 3/1 180 м
[St Ci fib]
+17.1 +16.8 98 +18 +18 1011.5 1001.5
03 18.06 Ю 1 9000 м дымка 4/1 240 м
[St Ac trans Ci fib]
+16.6 +16.3 98 +17 +17 1011.9 1001.8
04 18.06 Ю 1 10 км 9/8 240 м
[St Ac trans Ci fib]
+17.4 +17.1 98 +18 +19 1012.5 1002.5
06 18.06 Ю 1 8000 м дымка 8/8 180 м
[St]
+18.6 +17.5 93 +21 +22 комфорт 1012.7 1002.9 +16.2
09 18.06 Ю 1 10 км 8/8 600 м
[Cu hum]
+22.9 +19.1 79 +29 +33 очень
душно
1013.1 1003.4
12 18.06 В 1 15 км в посл. час гроза {ливн. осадки} 8/8 700 м
[Cu Sc]
+19.9 +18.9 94 +24 +28 комфорт 1012.7 1003.0 9
13 18.06 штиль 0 20 км 8/6 800 м
[Cu med, cong Ci fib]
+22.9 +17.9 73 +28 +35 душно 1012.7 1002.8
14 18.06 С 1 20 км 8/6 800 м
[Cu med, cong Ci fib]
+25.0 +19.3 71 +30 +35 душно 1011.9 1002.3
15 18.06 СВ 2 20 км 8/6 800 м
[Cu med, cong Ci fib]
+25.9 +17.5 60 +30 +32 душно 1012.1 1002.5
16 18.06 С 4 20 км 5/5 900 м
[Cu med, cong]
+26.0 +18.2 62 +31 +32 очень
душно
1012.3 1002.7
17 18.06 С 3 20 км 5/4 900 м
[Cu med, cong Ci fib]
+24.9 +16.9 61 +29 +29 душно 1012.6 1003.0
18 18.06 С 2 20 км 4/3 1000 м
[Cu hum Ac trans Ci fib]
+22.9 +16.9 69 +28 +28 душно 1013.5 1003.6 +26.2
19 18.06 СВ 1 10 км 4/0
[Ac trans Ci fib]
+20.0 +17.4 85 +24 +24 комфорт 1014.2 1004.2
20 18.06 В 1 10 км 4/0
[Ac trans Ci fib]
+19.7 +17.1 85 +23 +23 комфорт 1015.0 1005.0
21 18.06 С 2 10 км 4/0
[Ac trans Ci fib]
+20.5 +17.3 82 +25 +25 комфорт 1015.2 1005.2
22 18.06 штиль 0 10 км 4/0
[Ac trans Ci fib]
+18.7 +17.6 93 +20 +20 1015.4 1005.4
23 18.06 штиль 0 10 км 4/0
[Ac trans Ci fib]
+19.2 +17.9 92 +21 +21 комфорт 1015.5 1005.4
00 19.06 штиль 0 10 км 4/0
[Ac trans Ci fib]
+18.6 +18.0 96 +20 +20 1015.4 1005.3
02 19.06 ЮЗ 1 10 км 4/0
[Ac trans Ci fib]
+18.4 +17.9 97 +20 +20 1015.5 1005.5
03 19.06 штиль 0 10 км 4/0
[Ac trans]
+18.1 +17.8 98 +18 +18 1016.1 1006.0
05 19.06 ЮЗ 1 10 км 4/0
[Ac trans]
+18.7 +18.0 96 +21 +23 комфорт 1016.8 1006.8
04 19.06 штиль 0 10 км 4/0
[Ac trans]
+18.9 +18.4 97 +20 +21 1016.4 1006.3
06 19.06 Ю 1 10 км 6/4 180 м
[St Ac trans]
+20.7 +18.5 87 +26 +29 душно 1017.0 1007.0 +17.7
07 19.06 Ю 1 15 км 6/4 400 м
[St Ac trans]
+21.2 +18.4 84 +25 +31 комфорт 1017.5 1007.5
08 19.06 ЮЗ 1 15 км 6/4 700 м
[Cu hum Ac trans]
+23.0 +18.7 77 +29 +37 очень
душно
1017.6 1007.7
09 19.06 штиль 0 15 км 6/6 800 м
[Cu med, cong]
+23.8 +18.3 71 +28 +37 душно 1017.7 1007.8
11 19.06 штиль 0 15 км 6/6 1000 м
[Cu hum]
+26.0 +18.4 63 +31 +41 очень
душно
1017.4 1007.5
10 19.06 Ю 1 15 км 6/6 900 м
[Cu med, cong]
+25.4 +18.4 65 +30 +39 душно 1017.5 1007.7
12 19.06 штиль 0 15 км 5/4 1000 м
[Cu hum Ac trans]
+27.2 +18.4 59 +32 +45 очень
душно
1016.8 1007.0
13 19.06 З 1 15 км 6/5 900 м
[Cu med, cong Cs]
+27.9 +17.5 53 +32 +40 душно 1016.8 1007.0
14 19.06 В 1 15 км гроза без осадков 9/6 1000 м
[Cb cap Cs]
+26.0 +18.4 63 +31 +35 очень
душно
1017.3 1007.5
15 19.06 СВ 6
{13}
10 км слабый ливневой дождь, в посл. час гроза 9/6 1000 м
[Cu Sc As op]
+21.8 +16.7 73 +26 +26 душно 1018.1 1008.2
17 19.06 С 1 20 км 5/1 1000 м
[Cu med, cong Ac trans Ci fib]
+22.1 +18.4 80 +27 +28 душно 1017.2 1007.3
16 19.06 С 2 20 км в посл. час дождь 8/5 1000 м
[Cu Sc As trans]
+21.9 +17.5 76 +26 +27 душно 1017.3 1007.3
18 19.06 ЮЗ 2 20 км 4/0
[Ac trans Ci fib]
+20.3 +18.2 88 +24 +24 комфорт 1017.8 1007.9 +28.3 0.6
19 19.06 штиль 0 15 км 3/0
[Ci fib]
+18.5 +17.4 93 +19 +19 1018.7 1008.8
20 19.06 штиль 0 10 км ясно +17.5 +16.9 96 +17 +17 1019.4 1009.4
21 19.06 штиль 0 10 км ясно +17.9 +17.3 96 +18 +18 1019.3 1009.3
23 19.06 С 1 10 км ясно +16.2 +15.6 96 +17 +17 1019.7 1009.7
22 19.06 СВ 1 10 км ясно +16.4 +15.8 96 +17 +17 1019.5 1009.5
00 20.06 штиль 0 10 км ясно +15.5 +14.9 96 +15 +15 1020.0 1009.9
01 20.06 штиль 0 10 км ясно +15.0 +14.7 98 +15 +15 1020.1 1009.8
02 20.06 В 1 10 км ясно +14.5 +14.1 97 +15 +15 1020.2 1010.0

 

Местоположение метеостанции Vrsac (Сербия): широта 45.15 долгота 21.32 высота над уровнем моря 85 м.

В архиве по умолчанию представлена погода в Vrsac за последнюю неделю. Архивные данные за месяц целиком и за предыдущие месяцы, начиная с января 2011 года, Вы можете получить, выбрав интересующий диапазон дат из раскрывающегося списка и нажав кнопку "Ввод!".


*Определитесь, кто Вы:
робот инопланетянин человек

Внимание! Время в таблицах - всемирное. Для получения местного времени необходимо прибавить поправку, которая в Vrsac равна 1 ч.

Смотрите также архив погоды в соседних городах и на ближайших метеорологических станциях:

Погода в Banatski Karlovac (Сербия) (25 км)
Погода в Banloc (Румыния) (30 км)
Погода в Oravita (Румыния) (31 км)
Погода в Veliko Gradiste (Сербия) (47 км)
Погода в Resita (Румыния) (50 км)
Погода в Moldova Veche (Румыния) (54 км)
Погода в Semenic (Румыния) (57 км)
Погода в Bozovici (Румыния) (59 км)
Погода в Timisoara (Румыния) (69 км)
Погода в Zrenjanin (Сербия) (75 км)

Пояснения к столбцам:

Ветер - указаны скорость ветра в м/с - средняя за 10 мин, порывы в срок и между сроками (в фигурных скобках) и направление, откуда дует ветер: С - северный, СВ - северо-восточный, В - восточный, ЮВ - юго-восточный, Ю - южный, ЮЗ - юго-западный, З - западный, СЗ - северо-западный.
Видимость - горизонтальная дальность видимости в метрах или километрах. При видимости от 1 до 10 км при отсутствии осадков обычно наблюдается дымка, при ухудшении видимости до 1 км и менее - туман. В сухую погоду видимость может ухудшаться дымом, пылью или мглою.
Явления - указаны атмосферные явления, наблюдавшиеся в срок или в последний час перед сроком; фигурными скобками обозначены явления, наблюдавшиеся между сроками (за 1-3 часа до срока); квадратными скобками обозначены град или гололедные отложения с указанием их диаметра в мм.
Облачность - указаны через наклонную черту общая и нижняя облачность в баллах и высота нижней границы облаков в метрах; квадратными скобками обозначены формы облаков: Ci - перистые, Cs - перисто-слоистые, Cc - перисто-кучевые, Ac - высококучевые, As - высокослоистые, Sc - слоисто-кучевые, Ns - слоисто-дождевые, Cu - кучевые, Cb - кучево-дождевые. Подробнее классификацию облаков см. в Атласе облаков (PDF).
T - Температура воздуха - температура, измеренная на высоте 2 м над землей.
Td - Температура точки росы - температура, при понижении до которой содержащийся в воздухе водяной пар достигнет насыщения.
f - Относительная влажность воздуха - влажноcть воздуха, измеренная на высоте 2 м над землей.
Te - Эффективная температура - температура, которую ощущает одетый по сезону человек в тени. Характеристика душности погоды. При расчете учитывается влияние влажности воздуха и скорости ветра на теплоощущения человека.
Tes - Эффективная температура на солнце - температура, которую ощущает человек, с поправкой на солнечный нагрев. Характеристика знойности погоды. Зависит от высоты солнца над горизонтом, облачности и скорости ветра. Ночью, в пасмурную погоду, а также при ветре 12 м/с и более поправка равна нулю.
P - Атмосферное давление - приведенное к уровню моря атмосферное давление.
Po - Атмосферное давление - измеренное на уровне метеостанции атмосферное давление.
Tmin - Минимальная температура - минимум температуры воздуха на высоте 2 м над землей.
Tmax - Максимальная температура - максимум температуры воздуха на высоте 2 м над землей.
R - Количество осадков - Количество выпавших осадков за период времени, мм. При наведении курсора мыши на число - период времени, за который выпало указанное количество осадков.
R24 - Количество осадков - Количество выпавших осадков за 24 часа, мм.
S - Снежный покров - Высота снежного покрова, см. При наведении курсора мыши на число - состояние снежного покрова и степень покрытия местности в баллах.